Location: Antioch Baptist Church
(32.6696°N, 85.7327°W)
Time: 08:43:21
(UTC+00:00)

Cosmos-2242 - Pass Details

Date: 30 October 2020
Orbit: 592 x 616 km, 82.5° (Epoch: 03 December)

Event Time Altitude Azimuth Distance (km) Brightness Sun altitude
Rises 23:45:25 0° 152° (SSE) 2,814 6.2 -11.5°
Reaches altitude 10° 23:48:06 10° 134° (SE) 1,919 5.2 -12.1°
Maximum altitude 23:51:08 19° 88° (E) 1,417 4.3 -12.7°
Enters shadow 23:51:24 19° 83° (E) 1,422 4.3 -12.7°
